SOMP (39134 NORAD) Tracking and Keplerian Element Data

This shows tracking and keplerian element data for the satellite.

Feedback or suggestion? Click here.




ElementValue
Catalog39134
NameSOMP
Epoch Orbit53122
Epoch Day325.16636882
Epoch Year2022
RAAN265.804
Inclination64.8591
Eccentricity0.0031027
Argument of Perigee257.7935
Mean Anonmoly101.9724
Mean Motion15.34218278
Decay Rate0.00024637
L11 39134U 13015E 22325.16636882 .00024637 00000+0 73296-3 0 9995
L22 39134 64.8591 265.8040 0031027 257.7935 101.9724 15.34218278531229



Live tracking and technical data element details for SOMP (NORAD 39134). SOMP can be tracked NOW for your location showing map with azimuth and elevation plus other details from your city location.







IsCatalogInMostPopularTable: catalog: 39134, numindb: 409
Update: records affected: 1



GetName: 39134 SOMP

Hit Count: updated at: Fri, 02 Dec 2022 13:48:11 GMT